Location: Rotheul
(50.2849°N, 11.2349°E)
Time: 11:29:26
(UTC+02:00)

ISS - Pass Details

Date: 24 May 2018
Orbit: 402 x 407 km, 51.6° (Epoch: 27 May)

Event Time Altitude Azimuth Distance (km) Brightness Sun altitude
Rises 22:51:04 0° 256° (WSW) 2,316 0.3 -12.3°
Reaches altitude 10° 22:53:09 10° 256° (WSW) 1,458 -0.8 -12.5°
Maximum altitude 22:56:25 86° 346° (NNW) 409 -3.8 -12.8°
Drops below altitude 10° 22:59:42 10° 76° (ENE) 1,459 -1.2 -13.1°
Sets 23:01:46 0° 76° (ENE) 2,320 -0.2 -13.2°
